TimeEDT,TemperatureF,Dew PointF,Humidity,Sea Level PressureIn,VisibilityMPH,Wind Direction,Wind SpeedMPH,Gust SpeedMPH,PrecipitationIn,Events,Conditions,WindDirDegrees,DateUTC
12:51 AM,66.9,56.8,70,30.84,10.0,Variable,5.8,-,N/A,,Mostly Cloudy,0,2013-08-08 04:51:00
1:51 AM,66.9,56.8,70,30.83,10.0,SE,5.8,-,N/A,,Overcast,130,2013-08-08 05:51:00
2:29 AM,66.2,57.2,73,30.10,10.0,SE,5.8,-,N/A,,Overcast,130,2013-08-08 06:29:00
2:51 AM,65.8,56.8,73,30.82,10.0,SE,5.8,-,N/A,,Overcast,140,2013-08-08 06:51:00
3:51 AM,65.8,57.9,76,30.81,10.0,Calm,Calm,-,N/A,,Overcast,0,2013-08-08 07:51:00
4:40 AM,66.2,59.0,78,30.08,2.5,Variable,3.5,-,0.09,Rain,Rain,0,2013-08-08 08:40:00
4:51 AM,63.9,61.0,90,30.79,6.0,Calm,Calm,-,0.11,,Mostly Cloudy,0,2013-08-08 08:51:00
5:51 AM,64.9,61.0,87,30.79,10.0,Calm,Calm,-,0.00,,Mostly Cloudy,0,2013-08-08 09:51:00
6:51 AM,64.9,61.9,90,30.79,10.0,Calm,Calm,-,N/A,,Mostly Cloudy,0,2013-08-08 10:51:00
7:51 AM,66.9,63.9,90,30.79,10.0,Calm,Calm,-,N/A,,Overcast,0,2013-08-08 11:51:00
8:51 AM,68.9,64.9,87,30.80,10.0,Calm,Calm,-,N/A,,Overcast,0,2013-08-08 12:51:00
9:51 AM,72.9,65.8,79,30.80,10.0,Variable,6.9,-,N/A,,Overcast,0,2013-08-08 13:51:00
10:06 AM,73.4,66.2,78,30.07,10.0,Calm,Calm,-,N/A,,Overcast,0,2013-08-08 14:06:00
10:51 AM,77.0,68.0,74,30.79,10.0,Variable,4.6,-,N/A,,Mostly Cloudy,0,2013-08-08 14:51:00
11:51 AM,79.0,66.9,66,30.77,10.0,Calm,Calm,-,N/A,,Mostly Cloudy,0,2013-08-08 15:51:00
12:51 PM,79.0,68.0,69,30.77,10.0,Variable,4.6,-,N/A,,Mostly Cloudy,0,2013-08-08 16:51:00
1:51 PM,79.9,68.9,69,30.77,10.0,Variable,5.8,-,N/A,,Mostly Cloudy,0,2013-08-08 17:51:00
2:51 PM,81.0,68.9,67,30.76,10.0,Variable,5.8,-,N/A,,Scattered Clouds,0,2013-08-08 18:51:00
3:51 PM,81.0,68.9,67,30.75,10.0,Variable,3.5,-,N/A,,Mostly Cloudy,0,2013-08-08 19:51:00
4:51 PM,81.9,68.9,65,30.74,10.0,Variable,5.8,-,N/A,,Scattered Clouds,0,2013-08-08 20:51:00
5:51 PM,81.9,68.9,65,30.73,10.0,Variable,3.5,-,N/A,,Partly Cloudy,0,2013-08-08 21:51:00
6:51 PM,79.9,70.0,72,30.73,10.0,Calm,Calm,-,N/A,,Partly Cloudy,0,2013-08-08 22:51:00
7:51 PM,77.9,70.0,76,30.74,10.0,Calm,Calm,-,N/A,,Partly Cloudy,0,2013-08-08 23:51:00
8:51 PM,77.0,70.0,79,30.75,10.0,Calm,Calm,-,N/A,,Clear,0,2013-08-09 00:51:00
9:51 PM,75.9,70.0,82,30.76,10.0,Calm,Calm,-,N/A,,Clear,0,2013-08-09 01:51:00
10:51 PM,74.8,70.0,85,30.74,10.0,Calm,Calm,-,N/A,,Clear,0,2013-08-09 02:51:00
11:51 PM,73.9,70.0,87,30.74,10.0,Calm,Calm,-,N/A,,Mostly Cloudy,0,2013-08-09 03:51:00